Orbital Elements at Epoch 2459200.5 (2020-Dec-17.0) TDB
Reference: JPL 16 (heliocentric ecliptic J2000)
Element | Value | Uncertainty (1-sigma) | Units |
e | .1264619327565893 | 3.5845e-08 | |
a | 2.574625233325497 | 1.3431e-08 | au |
q | 2.24903315019527 | 9.2699e-08 | au |
i | 5.410798098529616 | 4.6277e-06 | deg |
node | 12.86064694815763 | 5.5447e-05 | deg |
peri | 28.07978260530307 | 6.0167e-05 | deg |
M | 39.46635548940446 | 2.5403e-05 | deg |
tp | 2459035.077727920891 (2020-Jul-04.57772792) | 0.00010592 | TDB |
period | 1508.93127095222 4.13 | 1.1807e-05 3.233e-08 | d yr |
n | .2385794548301857 | 1.8668e-09 | deg/d |
Q | 2.900217316455724 | 1.5129e-08 | au |
|
| | Orbit Determination Parameters
Additional Information
|